Simultaneous Nadir Overpasses (SNOs) Predictions

Prediction of SNOs between NOAA-19 and NPP Satellite Orbit:

Table of predicted SNOs for the next 14.0 days since TLE Epoch: 9/12/2015
Index Date (NOAA-19) Time (NOAA-19) Lat,Lon (NOAA-19) SZA (NOAA-19 ) Date (NPP) Time (NPP) Lat,Lon (NPP) SZA (NPP ) Distance(km) Time Diff (sec)
1 09/14/2015 10:27:14 -81.04, 149.91 98.93 09/14/2015 10:28:28 -81.05, 149.79 98.95 2.29 74
2 09/14/2015 11:18:14 81.04, -42.73 81.07 09/14/2015 11:19:13 81.05, -42.80 81.05 1.44 59
3 09/14/2015 12:09:16 -81.04, 124.59 98.93 09/14/2015 12:09:57 -81.04, 124.71 98.97 2.14 41
4 09/14/2015 13:00:16 81.04, -68.04 81.07 09/14/2015 13:00:42 81.03, -67.88 81.04 2.87 26
5 09/14/2015 13:51:18 -81.04, 99.27 98.93 09/14/2015 13:51:27 -81.04, 99.27 98.93 0.17 9
6 09/14/2015
